Stations météo

réclame
Mon MeteoGroup
Bari Palese, Italie (16270): Température de l'air & dewpoint: 13.10.2017 21:00:00 - 19.10.2017 21:00:00 (CEST)Bari Palese, Italie (16270): Vitesse du vent: 13.10.2017 21:00:00 - 19.10.2017 21:00:00 (CEST)Bari Palese, Italie (16270): Direction du vent: 13.10.2017 21:00:00 - 19.10.2017 21:00:00 (CEST)Bari Palese, Italie (16270): reduced air pressure: 13.10.2017 21:00:00 - 19.10.2017 21:00:00 (CEST)Bari Palese, Italie (16270): visibility: 13.10.2017 21:00:00 - 19.10.2017 21:00:00 (CEST)Bari Palese, Italie (16270): Quantités de précipitations: 13.10.2017 21:00:00 - 19.10.2017 21:00:00 (CEST)
Date & Time tt [°C] td [°C] ff [km/h] ff [knt] dd ppp [hPa] vv [km] rr [mm]
19.10.2017 21:00:00 - - - - - - - -
19.10.2017 20:00:00 18,2 18,1 2 1 SSE 1017,7 6 0,0
19.10.2017 19:00:00 - - - - - - - -
19.10.2017 18:00:00 - - - - - - - -
19.10.2017 17:00:00 19,9 17,0 11 6 E 1017,2 6 -
19.10.2017 16:00:00 - - - - - - - -
19.10.2017 15:00:00 - - - - - - - -
19.10.2017 14:00:00 20,6 16,5 13 7 ENE 1017,8 5 0,0
19.10.2017 13:00:00 - - - - - - - -
19.10.2017 12:00:00 - - - - - - - -
19.10.2017 11:00:00 20,3 15,6 5 3 E 1018,8 3,5 -
19.10.2017 10:00:00 - - - - - - - -
19.10.2017 09:00:00 - - - - - - - -
19.10.2017 08:00:00 14,8 14,8 8 4 SW 1018,4 2,0 0,0
19.10.2017 07:00:00 - - - - - - - -
19.10.2017 06:00:00 - - - - - - - -
19.10.2017 05:00:00 15,8 15,8 5 3 SW 1018,4 4,0 -
19.10.2017 04:00:00 - - - - - - - -
19.10.2017 03:00:00 - - - - - - - -
19.10.2017 02:00:00 12,5 12,5 8 4 WSW 1018,8 4,6 0,0
19.10.2017 01:00:00 - - - - - - - -
19.10.2017 00:00:00 - - - - - - - -
18.10.2017 23:00:00 14,2 14,2 8 4 W 1018,8 2,0 -
18.10.2017 22:00:00 - - - - - - - -
18.10.2017 21:00:00 - - - - - - - -
18.10.2017 20:00:00 15,5 15,5 2 1 SSW 1018,6 2,5 0,0
18.10.2017 19:00:00 - - - - - - - -
18.10.2017 18:00:00 - - - - - - - -
18.10.2017 17:00:00 19,7 17,5 13 7 E 1018,0 5 -
18.10.2017 16:00:00 - - - - - - - -
18.10.2017 15:00:00 - - - - - - - -
18.10.2017 14:00:00 20,2 15,7 13 7 E 1019,2 7 0,0
18.10.2017 13:00:00 - - - - - - - -
18.10.2017 12:00:00 - - - - - - - -
18.10.2017 11:00:00 16,8 16,8 2 1 W 1020,7 0,2 -
18.10.2017 10:00:00 - - - - - - - -
18.10.2017 09:00:00 - - - - - - - -
18.10.2017 08:00:00 11,4 11,4 5 3 WSW 1020,9 0,2 0,0
18.10.2017 07:00:00 - - - - - - - -
18.10.2017 06:00:00 - - - - - - - -
18.10.2017 05:00:00 12,9 12,9 11 6 SW 1021,2 0,2 -
18.10.2017 04:00:00 - - - - - - - -
18.10.2017 03:00:00 - - - - - - - -
18.10.2017 02:00:00 15,3 15,3 8 4 SW 1022,2 0,4 0,0
18.10.2017 01:00:00 - - - - - - - -
18.10.2017 00:00:00 - - - - - - - -
17.10.2017 23:00:00 12,9 12,9 8 4 W 1022,7 7 -
17.10.2017 22:00:00 - - - - - - - -
17.10.2017 21:00:00 - - - - - - - -
17.10.2017 20:00:00 15,2 15,3 4 2 S 1023,0 5 0,0
17.10.2017 19:00:00 - - - - - - - -
17.10.2017 18:00:00 - - - - - - - -
17.10.2017 17:00:00 19,6 16,1 8 4 ENE 1023,2 5 -
17.10.2017 16:00:00 - - - - - - - -
17.10.2017 15:00:00 - - - - - - - -
17.10.2017 14:00:00 20,4 15,4 11 6 NE 1024,7 7 0,0
17.10.2017 13:00:00 - - - - - - - -
17.10.2017 12:00:00 - - - - - - - -
17.10.2017 11:00:00 20,1 14,1 8 4 N 1026,3 6 -
17.10.2017 10:00:00 - - - - - - - -
17.10.2017 09:00:00 - - - - - - - -
17.10.2017 08:00:00 10,8 6,4 11 6 SSW 1026,1 4,1 0,0
17.10.2017 07:00:00 - - - - - - - -
17.10.2017 06:00:00 - - - - - - - -
17.10.2017 05:00:00 10,7 7,5 13 7 SW 1026,0 10 -
17.10.2017 04:00:00 - - - - - - - -
17.10.2017 03:00:00 - - - - - - - -
17.10.2017 02:00:00 12,1 7,3 11 6 W 1026,9 7 0,0
17.10.2017 01:00:00 - - - - - - - -
17.10.2017 00:00:00 - - - - - - - -
16.10.2017 23:00:00 12,7 10,4 11 6 SW 1027,2 7 -
16.10.2017 22:00:00 - - - - - - - -
16.10.2017 21:00:00 - - - - - - - -
16.10.2017 20:00:00 15,1 15,1 9 5 SW 1027,1 7 0,0
16.10.2017 19:00:00 - - - - - - - -
16.10.2017 18:00:00 - - - - - - - -
16.10.2017 17:00:00 19,9 14,4 5 3 ENE 1027,0 7 -
16.10.2017 16:00:00 - - - - - - - -
16.10.2017 15:00:00 - - - - - - - -
16.10.2017 14:00:00 22,0 9,7 9 5 N 1027,2 10 0,0
16.10.2017 13:00:00 - - - - - - - -
16.10.2017 12:00:00 - - - - - - - -
16.10.2017 11:00:00 20,9 10,9 8 4 N 1028,0 10 -
16.10.2017 10:00:00 - - - - - - - -
16.10.2017 09:00:00 - - - - - - - -
16.10.2017 08:00:00 11,8 7,1 11 6 SSW 1027,5 10 0,0
16.10.2017 07:00:00 - - - - - - - -
16.10.2017 06:00:00 - - - - - - - -
16.10.2017 05:00:00 11,1 7,5 11 6 W 1026,8 7 -
16.10.2017 04:00:00 - - - - - - - -
16.10.2017 03:00:00 - - - - - - - -
16.10.2017 02:00:00 11,7 11,7 9 5 SW 1027,1 7 0,0
16.10.2017 01:00:00 - - - - - - - -
16.10.2017 00:00:00 - - - - - - - -
15.10.2017 23:00:00 14,7 14,7 9 5 SW 1027,5 8 -
15.10.2017 22:00:00 - - - - - - - -
15.10.2017 21:00:00 - - - - - - - -
15.10.2017 20:00:00 16,5 16,2 2 1 WSW 1027,4 6 0,0
15.10.2017 19:00:00 - - - - - - - -
15.10.2017 18:00:00 - - - - - - - -
15.10.2017 17:00:00 20,2 16,1 15 8 NNE 1026,8 7 -
15.10.2017 16:00:00 - - - - - - - -
15.10.2017 15:00:00 - - - - - - - -
15.10.2017 14:00:00 21,5 15,1 9 5 E 1027,3 10 0,0
15.10.2017 13:00:00 - - - - - - - -
15.10.2017 12:00:00 - - - - - - - -
15.10.2017 11:00:00 20,6 12,5 15 8 N 1028,3 10 -
15.10.2017 10:00:00 - - - - - - - -
15.10.2017 09:00:00 - - - - - - - -
15.10.2017 08:00:00 12,5 12,3 5 3 WSW 1027,6 7 -
15.10.2017 07:00:00 - - - - - - - -
15.10.2017 06:00:00 - - - - - - - -
15.10.2017 05:00:00 11,8 11,0 8 4 W 1026,9 6 -
15.10.2017 04:00:00 - - - - - - - -
15.10.2017 03:00:00 - - - - - - - -
15.10.2017 02:00:00 12,6 12,4 9 5 W 1027,1 5 0,0
15.10.2017 01:00:00 - - - - - - - -
15.10.2017 00:00:00 - - - - - - - -
14.10.2017 23:00:00 15,1 13,7 8 4 W 1027,1 5 -
14.10.2017 22:00:00 - - - - - - - -
14.10.2017 21:00:00 - - - - - - - -
14.10.2017 20:00:00 18,8 15,7 13 7 NW 1026,7 5 0,0
14.10.2017 19:00:00 - - - - - - - -
14.10.2017 18:00:00 - - - - - - - -
14.10.2017 17:00:00 20,2 15,5 18 10 N 1025,9 3,0 -
14.10.2017 16:00:00 - - - - - - - -
14.10.2017 15:00:00 - - - - - - - -
14.10.2017 14:00:00 20,9 13,9 18 10 N 1026,3 10 0,0
14.10.2017 13:00:00 - - - - - - - -
14.10.2017 12:00:00 - - - - - - - -
14.10.2017 11:00:00 20,9 12,5 11 6 N 1026,9 10 -
14.10.2017 10:00:00 - - - - - - - -
14.10.2017 09:00:00 - - - - - - - -
14.10.2017 08:00:00 13,4 13,1 8 4 WNW 1026,2 8 0,0
14.10.2017 07:00:00 - - - - - - - -
14.10.2017 06:00:00 - - - - - - - -
14.10.2017 05:00:00 13,4 13,4 8 4 W 1025,4 8 -
14.10.2017 04:00:00 - - - - - - - -
14.10.2017 03:00:00 - - - - - - - -
14.10.2017 02:00:00 15,2 14,8 13 7 WNW 1025,6 9 0,0
14.10.2017 01:00:00 - - - - - - - -
14.10.2017 00:00:00 - - - - - - - -
13.10.2017 23:00:00 18,8 12,4 13 7 N 1025,4 15 -
13.10.2017 22:00:00 - - - - - - - -
13.10.2017 21:00:00 - - - - - - - -

tt = Température de l'air
td = dewpoint
ff = Vitesse du vent
dd = Direction du vent
ppp = reduced air pressure
vv = visibility
rr = Quantités de précipitations

stations d'obs. à proximité